#timestamp,LO_Frequency,Hit,StdDev 
1608562815.6,286046995.4,Y
1608562835.5,286046998.8,P
1608562855.3,286046999.4,N
1608562875.1,286046996.7,P
1608562895.9,286046995.5,Y
1608562915.7,286046998.9,P
1608562935.5,286046999.3,N
1608562955.4,286046998.7,N
1608562975.2,286046998.5,Y
1608562995.0,286047000.6,P
1608562995.9,286047000.6,N
1608563015.8,286046998.1,N
1608563035.6,286047001.1,N
1608563055.4,286047001.2,N
1608563075.2,286047001.0,N
1608563095.1,286047001.2,N
1608563096.0,286047001.2,N
1608563115.8,286046999.5,N
1608563135.6,286046999.3,N
1608563155.5,286046998.9,N
1608563175.3,286046996.9,N
1608563195.1,286046997.0,N
1608563215.9,286046999.6,N
1608563235.7,286046997.0,N
1608563255.5,286046999.5,N
1608563275.4,286046997.4,N
1608563295.2,286046997.7,N
1608563315.0,286046995.0,Y
1608563315.9,286046995.0,P
1608563335.8,286046996.6,N
1608563355.6,286046999.2,N
1608563375.4,286046999.0,N
1608563395.3,286046997.2,N
1608563415.1,286046996.8,N
1608563435.8,286046997.2,N
1608563455.7,286046996.6,N
1608563475.5,286046996.5,N
1608563495.3,286046997.8,N
1608563515.2,286046997.7,N
1608563535.9,286046997.3,N
1608563555.7,286046997.5,N
1608563575.6,286046997.7,N
1608563595.4,286046994.9,Y
1608563615.2,286046999.1,P
1608563635.1,286046999.3,N
1608563636.0,286046999.3,N
1608563655.8,286046999.6,N
1608563675.6,286046996.8,Y
1608563695.5,286046998.9,P
1608563715.3,286046998.6,P
1608563735.1,286046998.1,P
1608563755.9,286046999.0,Y
1608563775.7,286046998.6,P
1608563795.5,286047001.1,P
1608563815.4,286046998.5,N
1608563835.2,286047001.0,N
1608563855.0,286046998.2,N
1608563855.9,286046998.2,N
1608563875.8,286046998.8,N
1608563895.6,286046998.8,N
1608563915.4,286046999.0,N
1608563935.3,286047001.2,N
1608563955.1,286046998.3,N
1608563956.0,286046998.3,N
1608563975.8,286046998.6,N
1608563995.7,286046998.6,N
1608564015.5,286046998.8,N
1608564035.3,286046999.4,N
1608564055.2,286046999.2,N
1608564075.9,286046997.1,Y
1608564095.7,286046997.2,P
1608564115.6,286046999.6,N
1608564135.4,286046996.8,P
1608564155.2,286046996.7,N
1608564175.0,286046998.8,N
1608564176.0,286046998.8,N
1608564195.8,286046998.7,N
1608564215.6,286046998.8,N
1608564235.4,286046998.7,N
1608564255.3,286046998.5,N
1608564275.1,286046998.2,N
1608564295.8,286046998.3,N
1608564315.7,286046998.1,N
1608564335.5,286047001.0,N
1608564355.3,286046998.8,N
1608564375.2,286046999.1,N
1608564395.0,286046999.4,N
1608564395.9,286046999.4,N
1608564415.7,286046998.2,N
1608564435.6,286046998.1,N
1608564455.4,286047001.2,N
1608564475.2,286046998.2,N
1608564495.1,286046999.4,N
1608564496.0,286046999.4,N
1608564515.8,286046998.3,N
1608564535.6,286046998.7,N
1608564555.5,286046998.3,N
1608564575.3,286046998.5,N
1608564595.1,286046998.3,N
1608564615.9,286046999.3,N
1608564635.7,286046996.9,Y
1608564655.5,286046998.1,P
1608564675.4,286047000.3,N
1608564695.2,286046998.2,N
1608564715.0,286047000.8,N
1608564715.9,286047000.8,N
1608564735.8,286047000.9,N
1608564755.6,286047000.1,N
1608564775.4,286047000.1,N
1608564795.3,286047002.7,N
1608564815.1,286047000.2,N
1608564816.0,286047000.2,N
1608564835.8,286046999.9,N
1608564855.7,286047002.7,N
1608564875.5,286047002.8,N
1608564895.3,286047002.2,N
1608564915.2,286047001.9,N
1608564935.9,286047002.8,N
1608564955.7,286047002.4,N
1608564975.6,286047002.3,N
1608564995.4,286047002.4,N
1608565015.2,286047002.6,N
1608565035.0,286046999.7,N
1608565035.9,286046999.7,N
1608565055.8,286047002.3,N
1608565075.6,286047001.6,N
1608565095.4,286047002.5,N
1608565115.3,286047001.8,N
1608565135.1,286047002.0,N
1608565155.8,286047001.6,N
1608565175.7,286047002.5,N
1608565195.5,286047001.4,N
1608565215.3,286047001.5,N
1608565235.2,286047001.3,N
1608565255.0,286047001.3,N
1608565255.9,286047001.3,N
1608565275.7,286047001.7,N
1608565295.6,286047002.1,N
1608565315.4,286047004.0,Y
1608565335.2,286047002.2,P
1608565355.1,286047002.4,P
1608565356.0,286047002.4,P
1608565375.8,286047001.8,Y
1608565395.6,286047001.2,P
1608565415.5,286047000.8,N
1608565435.3,286046999.2,N
1608565455.1,286046999.1,N
1608565475.9,286046999.1,N
1608565495.7,286046998.1,N
1608565515.5,286046999.3,N
1608565535.4,286046999.6,N
1608565555.2,286046999.0,N
1608565575.0,286046999.1,N
1608565575.9,286046999.1,N
1608565595.8,286046998.9,N
1608565615.6,286046996.5,Y
1608565635.4,286046999.0,P
1608565655.3,286046998.3,P
1608565675.1,286046998.6,N
1608565676.0,286046998.6,N
1608565695.8,286046998.4,Y
1608565715.7,286047000.6,P
1608565735.5,286047000.0,N
1608565755.3,286046999.7,N
1608565775.2,286047000.6,N
1608565795.9,286047000.3,N
1608565815.7,286046998.1,Y
1608565835.6,286047001.2,P
1608565855.4,286047000.8,N
1608565875.2,286047000.5,N
1608565895.1,286047000.5,N
1608565896.0,286047000.5,N
1608565915.8,286047000.6,N
1608565935.6,286047000.4,N
1608565955.5,286047001.0,Y
1608565975.3,286046998.2,P
1608565995.1,286046998.2,N
1608566015.9,286047000.6,N
1608566035.7,286046998.1,N
1608566055.5,286047001.2,N
1608566075.3,286046998.1,N
1608566095.2,286046998.4,N
1608566115.0,286046998.8,N
1608566115.9,286046998.8,N
1608566135.7,286046998.8,N
1608566155.6,286046998.1,N
1608566175.4,286046998.6,N
1608566195.2,286046999.4,N
1608566215.1,286046998.6,N
1608566216.0,286046998.6,N
1608566235.8,286047001.2,N
1608566255.6,286046998.3,N
1608566275.5,286046998.7,N
1608566295.3,286046999.4,N
1608566315.1,286046999.3,N
1608566335.9,286046998.9,N
1608566355.7,286046998.8,N
1608566375.5,286046999.6,N
1608566395.4,286046996.6,Y
